To NAV CANADA Home Page Login to a new session Search on AWWS site Feedback and Comments Disclaimer Vers la page française équivalente Tips FAQ What's new on the site To the Forecasts and Observations / NOTAM section To "File a Flight Plan" website Publications and other links Update of the User's profile FIC Telephone Numbers My Weather Data Folder Route Weather Data Regional Weather Data Local Weather Data To the Forecasts and Observations / NOTAM section
Request Generated 09/01/2015 at 22:17:12 UTC . Weather information available at that time is displayed.

METAR/TAF

SANIKILUAQ/NU    

METAR CYSK 012200Z 27020KT 1/4SM FG VV000 05/04 A2944 RMK FG8
9.3/4.7/M/M LAST OBS/NEXT 021200UTC SLP970=
METAR CYSK 012100Z 26019KT 1/8SM FG VV000 05/05 A2939 RMK FG8 SLP953=
METAR CYSK 012000Z 25016KT 1/2SM FG VV000 05/05 A2937 RMK FG8 SLP946=

CYSK - No TAF is issued for this station

Your time UTC time
Weather data provided by Environment Canada and NAV CANADA